Location: Home
(42.5358°N, 72.7383°W)
Time: 21:14:56
(UTC-05:00)

Altair - Pass Details

Date: 15 December 2021
Orbit: 1501 x 1683 km, 47.2° (Epoch: 26 January)

Event Time Altitude Azimuth Distance (km) Brightness Sun altitude
Rises 19:56:50 0° 293° (WNW) 4,691 10.9 -39.2°
Reaches altitude 10° 20:00:35 10° 281° (W) 3,685 10.2 -39.9°
Maximum altitude 20:07:31 25° 231° (SW) 2,690 9.0 -41.2°
Enters shadow 20:12:21 16° 192° (SSW) 3,194 9.1 -42.1°
